Location: Glencoe Junction
(41.7313°N, 110.5602°W)
Time: 08:08:32
(UTC+00:00)

Tiangong - Pass Details

Date: 28 January 2022
Orbit: 386 x 388 km, 41.5° (Epoch: 25 May)

Event Time Altitude Azimuth Distance (km) Brightness Sun altitude
Rises 01:49:44 0° 236° (SW) 2,354 6.4 -14.7°
Reaches altitude 10° 01:51:54 10° 228° (SW) 1,499 5.0 -15.1°
Maximum altitude 01:55:06 38° 158° (SSE) 658 2.1 -15.7°
Enters shadow 01:56:06 30° 118° (ESE) 784 2.2 -15.8°
